Location: Ellingshausen
(50.5460°N, 10.4723°E)
Time: 00:20:33
(UTC+00:00)

BREEZE-M DEB (TANK) - Pass Details

Date: 18 January 2026
Orbit: 313 x 11318 km, 49.7° (Epoch: 9 February)

Event Time Altitude Azimuth Distance (km) Brightness Sun altitude
Exits shadow 05:22:19 48° 213° (SSW) 426 2.6 -16.7°
Maximum altitude 05:22:28 49° 196° (SSW) 417 2.6 -16.6°
Drops below altitude 10° 05:24:45 10° 118° (ESE) 1,274 6.4 -16.3°
Sets 05:26:54 0° 113° (ESE) 2,376 8.3 -16.0°
